Orbital Elements at Epoch 2459000.5 (2020-May-31.0) TDB
Reference: JPL 16 (heliocentric ecliptic J2000)
Element | Value | Uncertainty (1-sigma) | Units |
e | .1053190796822708 | 4.7468e-08 | |
a | 2.51468028862296 | 1.6899e-08 | au |
q | 2.249836474930042 | 1.1554e-07 | au |
i | 5.522688945698769 | 4.2246e-06 | deg |
node | 116.5868717131583 | 6.6865e-05 | deg |
peri | 358.0233126260758 | 7.4499e-05 | deg |
M | 103.5731852208881 | 3.4428e-05 | deg |
tp | 2458581.448475522157 (2019-Apr-07.94847552) | 0.00013791 | TDB |
period | 1456.54059484886 3.99 | 1.4682e-05 4.02e-08 | d yr |
n | .247160979428353 | 2.4914e-09 | deg/d |
Q | 2.779524102315877 | 1.8679e-08 | au |
|
| | Orbit Determination Parameters
Additional Information
|